Other Public Products
Issued by NWS Grand Forks, ND

Home | Current Version | Previous Version | Graphics & Text | Print | Product List | Glossary On
Versions: 1 2 3 4 5 6 7 8 9 10 11 12 13 14 15 16 17 18 19 20 21 22 23 24 25 26 27 28 29 30 31 32 33 34 35 36 37 38 39 40 41 42 43 44 45 46 47 48 49 50
156
FPUS83 KFGF 131910
OPUFGF
PRAIRIE TO PINES WEATHER ROUNDUP
NATIONAL WEATHER SERVICE EASTERN NORTH DAKOTA/GRAND FORKS ND
100 PM CST SAT FEB 13 2016

 **SATELLITE DATA USED TO AUGMENT SKY COVER AT AUTOMATED STATIONS**
 *****  WEATHER ACROSS EASTERN NORTH DAKOTA  *****

CITY           SKY/WX    TMP DP  RH WIND       PRES   REMARKS
GRAND FORKS    MOSUNNY    5  -5  63 S17       30.39F WCI -14
GRAND FORKS AF SUNNY      6  -4  62 S17       30.36F WCI -13
GRAND CITY NWS NOT AVBL
BUXTON         NOT AVBL
DEVILS LAKE    CLOUDY     5  -4  66 SE20      30.22F WCI -15
FARGO          SUNNY      9  -3  58 SE21G26   30.39F WCI -11
WAHPETON ARPT  CLOUDY    10   0  61 S17G23    30.41F WCI  -7
$$

 *****  WEATHER ACROSS CENTRAL AND WESTERN NORTH DAKOTA  *****

CITY           SKY/WX    TMP DP  RH WIND       PRES   REMARKS
JAMESTOWN      CLOUDY     7  -2  66 SE18G30   30.21F WCI -12
BISMARCK       CLOUDY    15   5  64 S23       30.09F WCI  -3
MINOT          CLOUDY    17   5  59 SE17G25   30.02F WCI   1
MINOT AFB      CLOUDY    16   7  67 SE23      30.02F WCI  -2
GARRISON         N/A     12   8  84 SE23      29.99F WCI  -7
WILLISTON      CLOUDY    21  13  71 S10       29.91S WCI  10
DICKINSON      CLOUDY    16  13  88 S26       29.83F FOG     WCI  -3
HETTINGER      CLOUDY    19  17  92 SE16G23   29.89F FOG     WCI   4
$$

 *****  OTHER OBSERVATIONS NORTHEAST NORTH DAKOTA  *****

CITY           SKY/WX    TMP DP  RH WIND       PRES   REMARKS
WALHALLA       FAIR       5  -4  66 S15G22    30.34F WCI -13
LANGDON        FAIR       3  -8  60 S21G26    30.24F WCI -18
CAVALIER       FAIR       3  -4  72 S14G21    30.36F WCI -15
GRAFTON        FAIR       3  -6  66 SE15G21   30.40F WCI -15
CANDO          NOT AVBL
FORT TOTTEN      N/A      4  -7  61 SE14      29.95S WCI -14
ROLLA          CLOUDY     1  -6  71 S16       30.15F WCI -18
RUGBY          CLOUDY     7  -2  66 SE16G25   30.14F WCI -11
 ***** THE ABOVE OBSERVATIONS ARE NON NWS ARE NOT QUALITY
        CONTROLLED AND MAY MIS-REPORT RAIN FOR SNOW...
$$

 *****  OTHER OBSERVATIONS SOUTHEAST NORTH DAKOTA *****

CITY           SKY/WX    TMP DP  RH WIND       PRES   REMARKS
COOPERSTOWN    NOT AVBL
VALLEY CITY    FLURRIES   5  -2  72 SE18G25   30.30F WCI -15
OAKES          CLOUDY    10   0  61 SE18G24   30.29F WCI  -8
GWINNER        CLOUDY     9   1  72 SE20      30.32F WCI -11
SHEYENNE NWR     N/A      7  -4  59 SE14      29.95S WCI -10
BUFFALO        NOT AVBL
WYNDMERE       NOT AVBL
 ***** THE ABOVE OBSERVATIONS ARE NON NWS ARE NOT QUALITY
       CONTROLLED AND MAY MIS-REPORT RAIN FOR SNOW...
$$

  *****  WEATHER ACROSS NORTHERN MINNESOTA  *****

CITY           SKY/WX    TMP DP  RH WIND       PRES   REMARKS
FLAG ISLAND    CLOUDY    -8 -17  65 SE9       30.44F WCI -25
WARROAD        CLOUDY    -4 -13  65 NE7       30.43F WCI -18
ROSEAU         CLOUDY     0  -9  65 E7        30.42F WCI -13
HALLOCK        CLOUDY     3  -8  60 SE16      30.40F WCI -16
THF RVR FALLS  CLOUDY     3 -24  27 SE13      30.40F WCI -14
HALSTAD        NOT AVBL
FOSSTON        CLOUDY    14   0  52 E5        30.39F WCI   6
BAUDETTE       CLOUDY     1 -15  47 SE3       30.43F
WASKISH        SUNNY      1  -9  60 W5        30.44F WCI  -8
CROOKSTON      SUNNY      3  -8  60 S13       30.42F WCI -14
$$
  *****  WEATHER ACROSS CENTRAL AND WEST MINNESOTA  *****

CITY           SKY/WX    TMP DP  RH WIND       PRES   REMARKS
BEMIDJI        SUNNY      3 -12  48 SE10      30.41F WCI -12
PARK RAPIDS    SUNNY      5 -12  45 SE9       30.40F WCI  -9
WADENA         SUNNY      3  -9  55 SE12      30.42F WCI -13
DETROIT LAKES  SUNNY      7  -6  56 S15       30.39F WCI -11
MOORHEAD       SUNNY      9  -4  56 S20       30.40F WCI -11
FERGUS FALLS   SUNNY      9  -6  52 SE15      30.44F WCI  -8
ELBOW LAKE     FAIR       8  -4  58 E16       30.41F WCI -10
MORRIS MN      CLOUDY     9   0  66 SE18      30.42F WCI -10
STAPLES        SUNNY      5 -11  47 SE7       30.44F WCI  -7
WHEATON        CLOUDY     9   1  72 SE18      30.43F WCI -10
$$
  *****  WEATHER ELSEWHERE ACROSS MINNESOTA  *****

CITY           SKY/WX    TMP DP  RH WIND       PRES   REMARKS
DULUTH         SUNNY      5 -15  39 N5        30.46F WCI  -4
INTRNTL FALLS  FLURRIES   1 -15  47 CALM      30.46F
ELY            SUNNY      1 -15  46 CALM      30.43F
CLOQUET        SUNNY      5 -18  33 NW5       30.48F WCI  -4
BRAINERD       SUNNY      3 -12  49 S10       30.48F WCI -12
HIBBING        SUNNY      2 -15  45 NW5       30.46F WCI  -8
ALEXANDRIA     SUNNY      6  -7  54 SE13      30.42F WCI -10
SAINT CLOUD    SUNNY      4  -9  55 SE9       30.52F WCI -10
MINNEAPOLIS    SUNNY      7 -10  46 SE5       30.57F WCI  -2
$$

  *****  WEATHER ACROSS SOUTH DAKOTA  *****

CITY           SKY/WX    TMP DP  RH WIND       PRES   REMARKS
SIOUX FALLS    CLOUDY     7  -2  66 SE12      30.38F WCI  -8
BROOKINGS      CLOUDY     6  -3  66 SE16      30.34F WCI -12
WATERTOWN      CLOUDY     7  -4  60 SE15      30.31F WCI -10
HURON          CLOUDY    11   1  64 SE23G35   30.28F WCI  -9
SISSETON         N/A      5  -2  72 S17       30.38F WCI -14
ABERDEEN       CLOUDY    13   0  56 SE23      30.27F WCI  -6
MITCHELL       CLOUDY    12   4  70 SE28G33   30.31F WCI  -9
PIERRE         CLOUDY    27  17  66 SE21G28   30.07F WCI  13
MOBRIDGE       CLOUDY    17  11  77 SE16G24   30.07F HAZE    WCI   2
RAPID CITY     CLOUDY    43  32  65 S8        29.88F
$$

  *****  SOME WEATHER IN NEARBY STATES *****

CITY           SKY/WX    TMP DP  RH WIND       PRES   REMARKS
GLASGOW MT     CLOUDY    27  25  92 CALM      29.79F
GREAT FALLS MT CLOUDY    45  20  36 W25G35    29.94R
CHEYENNE WY    CLOUDY    59  15  18 W13G18    30.01F
SCOTTSBLUFF NE CLOUDY    42  32  67 S8        29.96F
OMAHA NE       CLOUDY    16   4  59 SE14      30.49F WCI   2
DES MOINES IA  CLOUDY    11  -4  51 S8        30.56F WCI  -1
DAVENPORT IA   SUNNY     16  -7  35 N3        30.59F
CHICAGO IL     MOSUNNY   15  -6  39 NW10      30.55F WCI   2
EAU CLAIRE WI  SUNNY      3 -12  49 VRB3      30.57F
LA CROSSE WI   SUNNY      7 -11  43 NW5       30.60F WCI  -2
$$

  *****  SOME NATIONAL WEATHER *****

CITY           SKY/WX    TMP DP  RH WIND       PRES   REMARKS
LA GUARDIA NY  MOSUNNY   19  -7  31 W26G37    30.08R WCI   1
RALEIGH NC     MOSUNNY   33  -1  23 W15G22    30.29F WCI  23
ATLANTA GA     SUNNY     40   4  22 N14       30.35F
NEW ORLEANS LA MOSUNNY   57  31  37 NE7       30.40F
OKLAHOMA CITY  SUNNY     50  28  42 SE15      30.31F
ALBUQUERQUE NM MOSUNNY   57  19  22 SW5       30.24F
SALT LAKE CITY CLOUDY    31  28  89 N5        30.34F FOG
LOS ANGELES CA MOSUNNY   58  53  84 W7        30.09F FOG
BOISE ID       SUNNY     45  34  65 NW6       30.34S
SEATTLE WA     CLOUDY    48  40  73 S10       30.26F
$$

*** WEATHER ACROSS MANITOBA...SASKATCHEWAN AND ONTARIO ***
                ***ONTARIO***

CITY           SKY/WX    TMP DP  RH WIND       PRES   REMARKS
GERALDTON      NOT AVBL
THUNDER BAY    MOSUNNY    1 -13  51 W12       30.48F WCI -15
SIOUX LOOKOUT  PTSUNNY   -4 -17  54 VRB2      30.42F
TORONTO        MOSUNNY    0 -15  50 SW3       30.32F
BIG TROUT LK   SUNNY     -8 -17  65 W8        30.37F WCI -23
PICKLE LAKE    CRYSTALS  -4 -17  54 W6        30.36F WCI -16
DRYDEN         SUNNY     -2 -17  50 S6        30.40F WCI -14
KENORA         MOSUNNY   -4 -17  54 SW10      30.41F WCI -21
$$
                *** MANITOBA***

CITY           SKY/WX    TMP DP  RH WIND       PRES   REMARKS
BRANDON        PTSUNNY    7  -8  51 SE16      30.16F WCI -11
DAUPHIN        PTSUNNY    1  -6  71 E9        30.15F WCI -14
ISLAND LAKE    PTSUNNY   -2 -13  60 VRB2      30.35F
PILOT MOUND      N/A      1  -6  71 S23G29      N/A  WCI -21
THE PAS        MOSUNNY    1 -11  55 SE20G28   30.07F WCI -20
THOMPSON       MOSUNNY    0 -13  55 S7        30.20F WCI -13
WINNIPEG       CRYSTALS   0 -13  55 SE16      30.40F WCI -21
LYNN LAKE      FLURRIES   3  -9  55 S14G20    29.95F WCI -15
CHURCHILL      PTSUNNY   -6 -15  65 S9        30.21F WCI -22
GILLAM         CLOUDY    -4 -17  54 SW9       30.28F WCI -20
$$
                ***SASKATCHEWAN***

CITY           SKY/WX    TMP DP  RH WIND       PRES   REMARKS
ESTEVAN        CLOUDY    18  10  73 SE20G26   29.91F WCI   1
KINDERSLEY     LGT SNOW  23  19  86 N14       29.76R WCI  11
LLOYDMINSTER   CLOUDY    19  18  93 W9        29.75F WCI   9
PRINCE ALBERT  LGT SNOW   7   1  78 E6        29.88S WCI  -3
REGINA         CLOUDY    18  12  79 SE24G33   29.82F WCI   0
YORKTON        CLOUDY     5   0  78 SE20G26   29.95F WCC1F1C2F2C3F3C4F4C5F5C6F6C7F7C8F8C9F9CaFaCbFbCcFcCdFdCe!



USA.gov is the U.S. government's official web portal to all federal, state and local government web resources and services.